Regional Weather Roundup
Issued by NWS

Home | Current Version | Previous Version | Graphics & Text | Print | Product List | Glossary On
Versions: 1 2 3 4 5 6 7 8 9 10 11 12 13 14 15 16 17 18 19 20 21 22 23 24 25 26 27 28 29 30 31 32 33 34 35 36 37 38 39 40 41 42 43 44 45 46 47 48 49 50
585
ASUS43 KLMK 281210
RWRKY
KENTUCKY REGIONAL WEATHER ROUNDUP
NATIONAL WEATHER SERVICE LOUISVILLE KY
800 AM EDT FRI APR 28 2017

NOTE "FAIR" INDICATES FEW OR NO CLOUDS BELOW 12,000 FEET
WITH NO SIGNIFICANT WEATHER AND/OR OBSTRUCTIONS TO VISIBILITY.

KYZ001>023-026-027-061>063-070>075-281300-
WESTERN AND SOUTH CENTRAL KENTUCKY

CITY           SKY/WX    TMP DP  RH WIND       PRES   REMARKS
PADUCAH        CLOUDY    56  51  84 CALM      29.89R
HENDERSON      CLOUDY    53  49  86 E6        29.92F
OWENSBORO      CLOUDY    53  49  86 E7        29.94S
HOPKINSVILLE   CLOUDY    54  52  91 E10       29.89S
BOWLING GREEN  CLOUDY    53  52  96 NE3       29.96S
GLASGOW        PTSUNNY   53  53 100 E6        29.96S
$$

KYZ024-025-028>034-038-045-046-053-281300-
NORTH CENTRAL KENTUCKY

CITY           SKY/WX    TMP DP  RH WIND       PRES   REMARKS
LOUISVILLE/SDF PTSUNNY   53  49  86 E7        29.99S
LOUISVILLE/LOU NOT AVBL
FORT KNOX      MOSUNNY   50  49  94 E8        29.96S
$$

KYZ035>037-039>044-047>052-055>060-089>105-281300-
NORTHEAST KENTUCKY

CITY           SKY/WX    TMP DP  RH WIND       PRES   REMARKS
LEXINGTON      PTSUNNY   55  48  77 E6        30.02R
COVINGTON      CLOUDY    51  46  83 E8        30.03R
FRANKFORT      CLOUDY    51  46  83 NE5       30.00R
$$

KYZ054-064>069-076>088-106>120-281300-
SOUTHEAST KENTUCKY

CITY           SKY/WX    TMP DP  RH WIND       PRES   REMARKS
JACKSON        SUNNY     55  49  80 VRB5      30.03R
LONDON         SUNNY     53  50  89 CALM      30.00R
SOMERSET       PTSUNNY   52  52 100 CALM      30.01S
MIDDLESBORO    FOG       50  50 100 CALM      30.03R VSB<1/4
MONTICELLO     SUNNY     53  52  96 W9        30.01R
$$





USA.gov is the U.S. government's official web portal to all federal, state and local government web resources and services.